EW5712 Weather Reports


time (UTC)temp
C
wind
direction
speed
KPH
gust
KPH
rain 1hr
cm
rain 24hr
cm
rain mn
cm
humidity
%
barometer
mb
20260504100513 5 303 0.0 0.0 0.00 0.00 0.00 70 1011.1
20260504080558 6 304 0.0 0.0 0.00 0.00 0.00 68 1011.3
20260504050422 7 304 0.0 0.0 0.00 0.00 0.00 63 1010.9
20260504045421 7 304 0.0 0.0 0.00 0.00 0.00 63 1010.7
20260504042440 8 304 0.0 0.0 0.00 0.00 0.00 60 1010.6
20260504041440 8 304 0.0 0.0 0.00 0.00 0.00 59 1010.6
20260504040501 8 304 0.0 0.0 0.00 0.00 0.00 58 1010.5
20260504035504 8 304 0.0 0.0 0.00 0.00 0.00 58 1010.6
20260504034459 8 304 0.0 0.0 0.00 0.00 0.00 58 1010.5
20260504033435 8 304 0.0 0.0 0.00 0.00 0.00 58 1010.6
20260504032423 8 304 0.0 0.0 0.00 0.00 0.00 57 1010.5
20260504030405 8 304 0.0 0.0 0.00 0.00 0.00 58 1010.5
20260504025400 8 304 0.0 0.0 0.00 0.00 0.00 58 1010.5
20260504024403 8 304 0.0 0.0 0.00 0.00 0.00 57 1010.6
20260504023359 8 304 0.0 0.0 0.00 0.00 0.00 58 1010.6
20260504022402 9 304 0.0 0.0 0.00 0.00 0.00 57 1010.5
20260504021411 9 304 0.0 0.0 0.00 0.00 0.00 58 1010.4
20260504020418 10 304 0.0 0.0 0.00 0.00 0.00 56 1010.3
20260504014354 10 304 0.0 0.0 0.00 0.00 0.00 53 1010.1
20260504012415 11 304 0.0 0.0 0.00 0.00 0.00 52 1010.0
20260504011407 11 304 0.0 0.0 0.00 0.00 0.00 50 1010.0
20260504010358 11 304 0.0 0.0 0.00 0.00 0.00 51 1009.9
20260504004338 12 304 0.0 0.0 0.00 0.00 0.00 46 1009.6
20260504003333 12 304 0.0 0.0 0.00 0.00 0.00 45 1009.6
20260504002352 12 304 0.0 0.0 0.00 0.00 0.00 44 1009.5
20260504001347 12 304 0.0 0.0 0.00 0.00 0.00 43 1009.5
20260504000342 13 304 0.0 0.0 0.00 0.00 0.00 42 1009.5
20260503235332 13 303 0.0 0.0 0.00 0.00 0.00 42 1009.4
20260503234309 13 303 0.0 0.0 0.00 0.00 0.00 40 1009.4
20260503231326 14 292 0.0 0.0 0.00 0.00 0.00 39 1009.4
20260503230310 14 290 0.0 6.4 0.00 0.00 0.00 40 1009.2
20260503225300 14 307 0.0 3.2 0.00 0.00 0.00 40 1009.2
20260503224302 14 302 0.0 0.0 0.00 0.00 0.00 40 1009.3
20260503222304 14 312 0.0 0.0 0.00 0.00 0.00 38 1009.4
20260503215312 15 309 0.0 0.0 0.00 0.00 0.00 36 1009.4
20260503214319 15 299 0.0 0.0 0.00 0.00 0.00 37 1009.3
20260503213327 15 348 0.0 0.0 0.00 0.00 0.00 35 1009.3
20260503212259 15 344 0.0 0.0 0.00 0.00 0.00 34 1009.1
20260503211249 15 329 0.0 0.0 0.00 0.00 0.00 34 1009.0
20260503210257 15 269 0.0 0.0 0.00 0.00 0.00 34 1009.1
20260503205312 15 304 0.0 0.0 0.00 0.00 0.00 33 1009.1
20260503204323 15 310 0.0 0.0 0.00 0.00 0.00 34 1009.1
20260503203318 15 305 0.0 0.0 0.00 0.00 0.00 33 1009.2
20260503202330 15 298 0.0 0.0 0.00 0.00 0.00 35 1009.3
20260503201340 16 238 0.0 3.2 0.00 0.00 0.00 33 1009.5
20260503195336 15 325 0.0 0.0 0.00 0.00 0.00 35 1009.9
20260503194322 14 296 0.0 0.0 0.00 0.00 0.00 36 1009.9
20260503193313 14 308 0.0 0.0 0.00 0.00 0.00 35 1010.2
20260503191332 15 313 0.0 0.0 0.00 0.00 0.00 35 1010.6
20260503190320 14 298 0.0 0.0 0.00 0.00 0.00 35 1010.6
20260503185258 14 315 0.0 0.0 0.00 0.00 0.00 37 1010.8
20260503184239 13 182 0.0 0.0 0.00 0.00 0.00 35 1010.7
20260503182242 13 301 0.0 1.6 0.00 0.00 0.00 37 1010.9
20260503181237 12 286 0.0 0.0 0.00 0.00 0.00 35 1011.0
20260503174225 12 292 0.0 0.0 0.00 0.00 0.00 38 1011.2
20260503172209 11 291 0.0 0.0 0.00 0.00 0.00 39 1011.1
20260503171217 11 42 0.0 0.0 0.00 0.00 0.00 39 1011.3
20260503160208 10 297 0.0 0.0 0.00 0.00 0.00 42 1012.1
20260503150229 7 322 0.0 0.0 0.00 0.00 0.00 50 1012.1
20260503131226 5 296 0.0 0.0 0.00 0.00 0.00 72 1012.5
20260503130249 5 243 0.0 0.0 0.00 0.00 0.00 73 1012.5